SCP
0 0 0 0 -0 0 0 0 0 0 -0 -0 -0 -0 -0 -0 -0 0 0 0 0 0 0 0 0 0 0 0 0 0 0 0 0 0 0 0 0 0 0 0 0 0 0 0 0 0 0 0 0
0 0 0 0 0 0 0 0 0 -0 -0 -0 -0 -0 -0 -0 -0 0 0 0 0 0 0 0 0 0 0 0 0 0 0 0 0 0 0 0 0 0 0 0 0 0 0 0 0 0 0 0 0
0 0 0 0 0 0 0 -0 -0 -0 -0 -0 -0 -0 -0 -0 0 0 0 0 0 0 0 0 0 0 0 0 0 0 0 0 0 0 0 0 0 0 0 0 0 0 0 0 0 0 0 0 0
0 0 0 0 0 -0 -0 -0 -0 -0 -0 -0 -0 -0 -0 0 0 0 0 0 0 0 0 0 0 0 0 0 0 0 0 0 0 0 0 0 0 0 0 0 0 0 0 0 0 0 0 0 0
0 0 -0 -0 -0 -0 -0 -0 -0 -0 -0 -0 -0 -0 0 0 0 0 0 0 0 0 0 0 0 0 0 0 0 0 0 0 0 0 0 0 0 0 0 0 0 0 0 0 0 0 0 0 0
0 0 -0 -0 -0 -0 -0 -0 -0 -0 0 -0 -0 -0 0 0 0 0 0 0 0 0 0 0 0 0 0 0 0 0 0 0 0 0 0 0 0 0 0 0 0 0 0 0 0 0 0 0 0
0 0 -0 -0 0 -0 -0 -0 -0 0 0 0 -0 0 0 0 0 0 0 0 0 0 0 0 0 0 0 0 0 0 0 0 0 0 0 0 0 0 0 0 0 0 0 0 0 0 0 0 0
0 -0 -0 0 0 0 -0 -0 -0 -0 -0 -0 -0 -0 0 0 0 0 0 0 0 0 0 0 0 0 0 0 0 0 0 0 0 0 0 0 0 0 0 0 0 0 0 0 0 0 0 0 0
-0 -0 -0 0 0 0 -0 -0 -0 -0 0 0 0 -0 0 0 0 0 0 0 0 0 0 0 0 0 0 0 0 0 0 0 0 0 0 0 0 0 0 0 0 0 0 0 0 0 0 0 0
-0 -0 -0 -0 0 0 -0 0 0 0 0 0 0 0 0 0 0 0 0 0 0 0 0 0 0 0 0 0 0 0 0 0 0 0 0 0 0 0 0 0 0 0 0 0 0 0 0 0 0
-0 -0 -0 0 -0 -0 0 0 0 0 0 0 0 0 0 0 0 0 0 0 0 0 0 0 0 0 0 0 0 0 0 0 0 0 0 0 0 0 0 0 0 0 0 0 0 0 0 0 0
0 0 0 0 0 -0 0 0 0 0 0 0 0 0 0 0 0 0 0 0 0 0 0 0 0 0 0 0 0 0 0 0 0 0 0 0 0 0 0 0 0 0 0 0 0 0 0 0 0
0 0 0 0 0 -0 0 0 0 0 0 0 0 0 0 0 0 0 0 0 0 0 0 0 0 0 0 0 0 0 0 0 0 0 0 0 0 0 0 0 0 0 0 0 0 0 0 0 0
0 0 0 0 0 0 0 0 0 0 0 0 0 0 0 0 0 1 1 0 0 0 0 0 0 0 0 0 0 0 0 0 0 0 0 0 0 0 0 0 0 0 0 0 0 0 0 0 0
0 0 0 0 0 0 0 0 0 0 0 0 0 0 0 1 1 1 1 1 1 0 0 0 0 0 0 0 0 0 0 0 0 0 0 0 0 0 0 0 0 0 0 0 0 0 0 0 0
0 0 0 0 0 0 0 0 0 0 0 0 0 0 0 1 1 1 1 1 1 1 0 0 0 0 0 1 1 0 0 0 0 0 0 0 0 0 0 0 0 0 0 0 0 0 0 0 0
0 0 0 0 0 0 0 0 0 0 0 0 0 0 1 1 1 2 2 2 2 1 1 1 1 1 1 1 1 1 1 1 0 0 0 0 0 0 0 0 0 0 0 0 0 0 0 0 0
0 0 0 0 0 0 0 0 0 0 0 0 0 0 1 1 2 3 3 3 3 2 2 2 2 2 1 1 1 1 1 0 0 0 0 0 0 0 0 0 0 0 0 0 0 0 0 0 0
0 0 0 0 0 0 0 0 0 0 0 0 0 1 1 2 3 4 4 4 4 3 3 3 3 2 2 2 1 1 1 0 0 0 0 0 0 0 0 0 0 0 0 0 0 0 0 0 0
0 0 0 0 0 0 0 0 0 0 0 0 0 1 1 3 4 4 4 4 4 4 4 3 3 3 2 2 1 1 0 0 0 0 0 0 0 0 0 0 0 0 0 0 0 0 0 0 0
0 0 0 0 0 0 0 0 0 0 0 0 1 1 1 3 4 4 4 4 4 4 3 3 3 3 2 2 1 0 0 0 0 0 0 0 0 0 0 0 0 0 0 0 0 0 0 0 0
0 0 0 0 0 0 0 0 0 0 0 0 1 1 1 2 3 3 3 3 3 3 2 2 2 2 1 1 0 0 0 0 0 0 0 0 0 0 0 0 0 0 0 0 0 0 0 0 0
0 0 0 0 0 0 0 0 0 0 0 0 0 1 1 2 2 2 2 2 2 1 1 1 1 1 1 0 0 0 0 0 0 0 0 0 0 0 0 0 0 0 0 0 0 0 0 0 0
0 0 0 0 0 0 0 0 0 0 0 0 0 1 1 2 2 2 1 1 1 1 1 0 0 0 0 0 0 0 0 0 0 0 0 0 0 0 0 0 0 0 0 0 0 0 0 0 0
0 0 0 0 0 0 0 0 0 0 0 0 0 1 1 2 2 1 1 0 0 0 0 0 0 0 0 0 0 0 0 0 0 0 0 0 0 0 0 0 0 0 0 0 0 0 0 0 0
0 0 0 0 0 0 0 0 0 0 0 0 0 1 1 2 1 1 0 0 0 0 0 0 0 0 0 0 0 0 0 0 0 0 0 0 0 0 0 0 0 0 0 0 0 0 0 0 0
0 0 0 0 0 0 0 0 0 0 0 0 0 1 2 2 1 0 0 0 0 0 0 0 0 0 0 0 0 0 0 0 0 0 0 0 0 0 0 0 0 0 0 0 0 0 0 0 0
0 0 0 0 0 0 0 0 0 0 0 0 0 1 2 1 1 0 0 0 0 0 0 0 0 0 0 0 0 0 0 0 0 0 0 0 0 0 0 0 0 0 0 0 0 0 0 0 0
0 0 0 0 0 0 0 0 0 0 0 0 0 1 2 1 1 0 0 0 0 0 0 0 0 0 0 0 0 0 0 0 0 0 0 0 0 0 0 0 0 0 0 0 0 0 0 0 0
0 0 0 0 0 0 0 0 0 0 0 0 0 1 1 1 0 0 0 0 0 0 0 0 0 0 0 0 0 0 0 0 0 0 0 0 0 0 0 0 0 0 0 0 0 0 0 0 0
Wind_Speed
11 8 5 5 8 9 5 4 2 5 5 4 3 2 4 6 6 7 7 9 9 11 13 15 13 12 12 10 10 11 12 13 12 12 12 11 10 9 8 7 5 5 4 5 6 6 7 7 6
7 5 6 6 9 8 6 5 6 6 7 6 6 2 1 5 6 7 9 10 11 11 11 13 14 12 12 11 11 11 11 12 12 11 11 10 9 8 6 5 3 3 3 4 5 6 6 6 6
6 6 6 6 8 4 6 6 7 8 8 5 5 3 3 5 5 7 10 12 12 10 9 12 13 12 12 12 12 11 11 11 10 10 9 8 7 6 5 3 3 3 4 5 5 6 6 6 6
6 7 6 9 8 1 2 6 8 10 8 5 5 5 6 5 4 9 13 13 12 11 10 13 11 12 12 12 12 11 11 10 10 9 8 7 6 5 4 3 3 3 4 4 5 6 7 7 6
7 7 9 10 6 2 3 3 8 10 9 7 4 5 7 6 7 12 13 13 12 11 10 13 10 11 12 12 11 11 10 10 9 9 8 7 6 5 4 4 4 4 5 6 7 7 7 7 6
7 7 10 9 6 4 5 7 10 9 9 9 6 5 8 8 9 12 13 12 11 10 10 12 10 10 11 11 10 10 10 9 9 8 8 8 7 5 4 4 4 4 5 6 7 7 7 6 5
10 8 10 4 5 6 5 9 11 10 10 9 7 6 7 9 10 12 12 11 10 10 10 10 12 11 11 10 10 10 9 8 8 8 8 7 6 5 5 5 5 5 5 6 6 6 6 5 5
7 7 9 6 6 6 6 9 10 10 8 7 6 6 6 12 12 13 12 11 10 10 9 7 8 10 11 12 11 10 9 8 8 7 7 6 6 7 5 6 7 5 5 5 5 4 4 4 4
7 9 8 5 4 5 7 10 9 7 8 8 8 3 6 16 15 14 13 12 10 9 9 8 8 7 8 10 11 11 10 8 8 8 7 6 5 6 6 8 7 5 5 5 4 3 2 3 7
8 11 5 2 1 0 4 9 11 11 13 12 11 8 9 16 16 16 15 14 13 11 9 9 9 9 9 7 8 7 7 8 6 5 6 5 3 1 2 9 6 6 5 6 4 2 6 9 5
8 9 1 3 2 4 5 9 13 14 13 15 16 15 15 17 16 16 14 13 13 12 10 9 9 7 8 6 6 5 4 5 5 5 5 3 3 3 3 3 7 6 5 4 5 6 3 3 2
9 8 6 5 4 5 6 8 14 15 12 11 14 15 18 19 18 16 15 14 12 12 12 10 9 8 6 5 5 5 5 4 4 5 5 4 2 2 1 2 0 2 2 0 3 2 2 4 4
13 10 7 8 9 8 8 10 11 13 9 5 11 16 20 19 17 15 13 13 12 12 12 11 9 9 7 5 4 4 4 5 4 4 4 2 3 2 1 1 2 4 3 3 3 5 4 5 6
8 9 9 10 8 5 8 9 10 8 7 9 13 17 19 19 18 16 14 13 12 12 11 11 10 10 8 7 5 4 4 3 3 3 2 3 2 1 2 2 1 2 3 4 5 5 5 5 5
7 10 12 10 7 3 7 11 11 4 6 11 14 16 18 19 18 17 15 13 12 11 11 10 10 10 9 8 7 5 4 4 2 2 1 1 1 1 1 1 1 2 2 2 3 4 4 4 5
10 12 14 9 5 4 10 15 8 3 8 12 13 15 17 18 19 16 15 12 11 11 11 10 9 10 9 6 5 4 2 3 2 2 2 3 4 3 1 2 3 3 3 3 3 4 5 5 6
13 16 18 12 5 5 10 11 7 1 7 11 12 14 16 17 18 16 14 13 11 10 10 10 9 10 9 8 6 5 5 4 4 4 4 5 5 5 3 4 4 3 3 4 4 4 6 6 6
14 16 17 16 7 6 10 10 5 4 8 11 12 13 15 17 17 14 12 11 10 10 10 10 10 10 10 8 7 6 7 6 5 6 7 7 6 6 5 5 5 5 4 4 4 3 3 5 5
9 11 13 13 5 9 12 12 10 6 9 12 13 13 14 16 13 11 10 10 11 11 11 11 11 11 8 7 7 7 7 6 7 7 8 8 7 7 5 4 4 4 3 4 4 5 6 6 5
13 14 15 13 7 9 12 14 12 10 12 12 12 13 14 14 12 11 11 11 11 11 11 11 11 11 10 7 6 6 8 7 7 7 7 7 6 5 4 4 2 3 2 2 4 4 7 7 6
14 15 15 14 11 11 12 18 18 12 11 12 13 14 15 15 15 13 12 11 11 12 11 10 10 10 10 11 10 9 8 7 7 6 5 5 5 5 4 3 4 3 5 4 5 5 6 7 8
15 14 14 15 15 14 10 14 15 12 12 14 14 14 15 15 15 15 14 13 12 11 10 11 10 11 11 10 10 11 8 7 6 5 5 5 3 3 3 3 3 4 4 4 5 5 6 6 7
14 11 12 14 15 16 13 14 15 10 13 15 16 15 14 14 14 14 13 13 12 12 11 11 12 11 11 10 10 9 8 8 7 6 5 3 3 2 2 3 3 3 3 4 5 5 6 6 6
11 9 10 13 14 19 17 17 15 11 12 13 12 13 13 12 13 12 12 13 12 12 11 11 12 11 10 9 9 9 10 9 8 5 4 2 1 1 2 2 2 3 4 3 4 5 5 5 6
11 11 10 11 13 16 15 14 14 10 9 9 7 11 13 13 13 14 14 13 13 13 12 12 12 11 9 9 8 9 9 8 6 4 3 0 0 0 2 3 3 4 3 4 5 5 6 6 6
15 16 13 11 12 11 8 10 10 6 6 6 7 10 14 15 14 15 15 14 14 14 13 12 12 11 10 9 9 8 7 5 5 4 2 1 2 2 2 3 4 4 5 6 5 7 6 5 7
18 17 18 17 18 16 13 13 8 10 12 11 10 13 16 15 15 16 16 15 15 14 12 12 12 11 10 10 9 8 7 6 6 5 2 1 1 1 2 3 5 5 6 6 7 7 8 8 9
16 13 10 13 15 17 17 17 13 11 11 11 12 14 15 15 15 16 16 15 14 13 12 10 10 10 10 10 8 7 7 6 5 3 3 1 1 2 4 4 5 6 7 7 8 9 8 9 10
15 15 13 13 13 15 15 11 5 5 7 8 9 14 16 16 16 16 15 15 14 13 12 11 11 10 9 8 7 7 5 4 3 2 1 1 2 3 5 6 6 7 8 9 9 11 12 13 13
10 14 15 14 15 15 15 13 3 2 6 7 7 12 16 16 16 16 16 16 14 13 12 11 10 9 8 8 7 6 4 3 1 0 2 3 4 6 7 8 9 10 11 11 12 13 13 14 15
Wind_Direction
179 200 232 243 244 235 229 130 155 133 109 89 75 31 10 11 0 47 103 135 138 139 138 144 148 152 153 150 143 135 129 125 122 118 117 116 117 117 119 123 128 129 123 110 97 85 79 78 77
177 201 230 241 253 224 154 141 157 104 93 121 119 108 58 68 51 92 127 133 143 141 147 146 144 153 154 154 150 144 138 132 126 122 120 119 118 118 119 122 124 116 103 92 82 74 68 64 60
189 227 252 248 249 269 111 138 131 110 130 151 133 106 48 55 89 114 120 136 142 142 146 131 150 154 155 155 153 149 143 137 132 128 125 122 119 115 112 110 102 92 86 82 79 75 70 64 58
204 215 234 248 236 184 57 129 135 141 148 156 151 121 90 67 98 120 130 139 142 145 149 135 156 155 155 155 153 149 144 142 139 136 133 130 126 119 110 101 91 81 74 77 84 87 83 73 59
234 240 235 235 226 163 172 145 161 157 152 158 174 131 111 96 106 126 139 144 146 145 145 136 149 152 153 154 152 148 144 143 141 140 138 136 131 127 119 110 97 88 81 83 88 89 82 73 60
221 235 240 219 176 177 183 181 183 160 154 162 178 148 108 121 139 146 146 151 146 144 141 128 141 151 152 153 149 145 142 141 140 140 137 133 130 129 126 117 104 96 92 93 95 94 88 79 65
244 242 251 226 177 176 170 182 193 173 168 169 173 159 123 147 149 154 150 152 146 142 142 145 150 154 152 149 147 144 141 138 135 133 130 128 126 125 120 112 97 92 93 92 92 91 88 84 70
261 259 236 207 194 149 152 177 196 192 170 143 173 180 149 155 158 160 155 156 149 147 135 134 148 152 159 156 147 144 140 137 134 132 130 134 146 140 130 140 97 96 98 95 93 95 99 103 97
247 247 217 174 180 132 156 176 176 188 169 175 190 169 110 147 163 168 163 165 156 145 136 154 155 159 157 149 147 154 150 145 159 157 149 194 184 151 157 79 86 98 106 108 108 114 134 188 166
234 244 182 105 296 252 178 187 164 183 187 193 189 163 146 157 172 178 175 173 165 158 163 165 164 165 164 153 155 167 172 161 191 155 165 182 131 129 84 115 112 115 128 146 132 166 213 238 203
230 251 173 233 281 292 227 196 177 194 197 201 197 179 168 173 181 186 181 178 169 163 170 168 168 173 162 160 165 164 162 151 173 160 164 158 179 170 183 167 162 162 186 191 158 211 231 264 316
240 249 259 278 307 277 249 202 193 208 213 205 202 180 173 183 186 189 182 178 168 168 169 167 163 169 176 160 157 168 164 164 165 152 197 173 183 199 163 239 325 227 207 292 278 270 255 278 274
236 248 256 267 278 280 250 216 208 217 220 199 195 179 182 187 188 187 182 175 173 172 167 165 172 161 164 165 172 173 160 165 151 167 175 204 211 211 209 272 305 295 311 265 269 289 296 284 268
247 254 261 269 274 238 225 199 209 215 203 202 192 190 191 190 189 181 182 180 180 177 171 162 174 165 169 171 171 171 169 167 166 178 160 227 266 283 265 238 277 312 326 342 323 320 304 288 300
261 259 249 238 244 235 232 201 208 177 204 204 202 202 198 194 189 186 182 182 181 178 171 166 172 165 174 174 174 175 171 173 172 139 141 229 291 60 277 348 320 11 2 344 313 320 299 297 294
230 239 240 202 213 210 234 217 168 174 210 212 212 208 203 196 193 187 180 179 179 180 168 170 169 164 166 162 161 158 145 128 117 107 99 75 63 59 16 36 41 19 356 351 354 329 319 318 307
222 232 232 198 182 223 239 234 127 224 227 224 217 212 206 195 198 185 180 173 177 177 168 169 162 163 158 146 140 119 103 94 95 88 82 80 71 67 57 50 44 10 16 9 354 7 334 322 316
229 233 233 233 174 244 241 240 193 241 245 235 225 219 208 199 196 182 178 171 168 167 165 158 153 151 146 140 128 118 109 103 92 82 76 76 74 63 61 71 44 17 22 17 17 350 330 310 305
265 259 250 245 244 264 253 250 241 234 242 240 232 225 212 204 180 165 166 166 163 159 157 155 152 148 151 146 144 134 120 109 96 85 79 76 71 69 51 61 61 19 33 7 343 324 300 282 302
238 243 248 249 235 264 265 258 251 240 244 246 243 229 221 195 160 161 169 168 164 156 152 151 153 152 153 137 119 112 109 100 92 88 78 75 73 63 65 39 26 24 340 326 332 326 313 309 304
232 244 254 260 262 248 265 258 243 225 235 241 243 236 222 201 181 172 173 168 159 153 152 148 147 145 136 131 123 121 119 123 118 110 98 79 78 73 55 39 4 343 313 347 334 323 323 319 309
240 239 255 262 263 260 245 270 250 226 226 231 232 227 220 202 189 179 175 165 153 143 138 134 134 130 130 135 139 145 147 138 130 130 119 116 98 79 60 30 14 345 341 349 314 1 317 308 306
250 262 252 254 260 266 250 256 263 234 242 239 225 220 215 200 186 179 171 155 142 136 131 129 128 125 126 126 130 135 133 129 132 133 130 140 119 83 42 27 11 350 335 354 336 328 318 312 314
239 242 247 250 253 252 250 254 259 237 239 252 227 207 204 189 171 161 148 139 133 129 127 128 126 122 125 129 132 132 129 131 135 142 142 175 141 102 54 4 350 320 334 330 317 315 301 317 323
216 228 233 229 226 244 241 246 261 264 257 265 245 197 186 174 158 149 144 140 136 135 133 130 127 124 126 124 122 123 126 132 131 135 120 338 337 1 62 329 318 319 320 307 306 294 307 300 300
219 230 247 264 262 262 221 237 261 254 260 265 244 193 177 171 162 156 150 146 143 140 137 135 132 130 131 127 125 123 129 123 110 99 82 77 347 5 14 297 294 295 296 296 300 292 287 286 286
240 236 247 259 268 275 271 267 254 244 242 235 217 187 177 169 162 156 151 149 146 144 143 141 138 138 137 133 130 125 115 101 104 123 155 122 56 328 298 292 290 290 290 293 291 285 288 286 283
244 246 240 245 255 262 262 259 257 255 256 236 212 191 176 163 160 157 153 150 148 145 142 140 140 136 136 137 134 125 122 119 126 141 101 58 349 334 307 299 294 291 288 285 285 287 288 291 286
215 228 232 247 255 265 269 270 315 293 299 281 226 190 171 163 162 160 154 150 147 145 144 143 141 140 139 131 124 121 123 129 141 146 183 274 306 303 291 294 293 290 288 286 284 285 291 289 292
251 238 238 249 256 257 268 276 55 352 302 281 234 177 163 163 164 161 154 150 150 150 149 146 141 140 135 127 128 133 140 136 164 293 306 285 283 287 290 290 288 287 287 288 287 289 293 295 296